This demonstration page uses our WeatherBlox Daily Observations layout. Learn more.

Left ArrowRight Arrow

40.92501, -98.34201

Hourly Observations for February 26, 2022

Temp ( °F °C ) Dew Point ( °F °C ) Humidity (%) Winds ( mph kmh ) Pressure ( in mb ) Visibility ( mi km ) Precip ( " mm )
12:53 am 00:53 Clear 19 -7.2 3 -16.1 49 49 SSW 16 26 30.52 1033 10 16 0.00 0.00
1:53 am 01:53 Clear 19 -7.2 4 -15.6 51 51 SSW 14 22 30.51 1033 10 16 0.00 0.00
2:53 am 02:53 Clear 19 -7.2 4 -15.6 51 51 SW 15 24 30.50 1033 10 16 0.00 0.00
3:53 am 03:53 Clear 18 -7.8 4 -15.6 54 54 SW 12 19 30.48 1032 10 16 0.00 0.00
4:53 am 04:53 Clear 17 -8.3 4 -15.6 56 56 SW 9 15 30.48 1032 10 16 0.00 0.00
5:53 am 05:53 Clear 15 -9.4 3 -16.1 59 59 SSW 8 13 30.48 1032 10 16 0.00 0.00
6:53 am 06:53 Clear 15 -9.4 3 -16.1 59 59 SSW 9 15 30.48 1032 10 16 0.00 0.00
7:53 am 07:53 Sunny 18 -7.8 4 -15.6 54 54 SW 6 9 30.48 1032 10 16 0.00 0.00
8:53 am 08:53 Sunny 23 -5 5 -15 46 46 WSW 9 15 30.48 1032 10 16 0.00 0.00
9:53 am 09:53 Sunny 31 -0.6 7 -13.9 36 36 WSW 10 17 30.47 1032 10 16 0.00 0.00
10:53 am 10:53 Sunny 39 3.9 8 -13.3 28 28 SW 10 17 30.45 1031 10 16 0.00 0.00
11:53 am 11:53 Sunny 43 6.1 5 -15 21 21 SW 17 28 30.44 1031 10 16 0.00 0.00
12:53 pm 12:53 Sunny 46 7.8 2 -16.7 16 16 SW 12 19 30.41 1030 10 16 0.00 0.00
1:53 pm 13:53 Sunny 48 8.9 2 -16.7 15 15 SW 15 24 30.37 1029 10 16 0.00 0.00
2:53 pm 14:53 Sunny 49 9.4 3 -16.1 15 15 SW 15 24 30.34 1028 10 16 0.00 0.00
3:53 pm 15:53 Sunny 51 10.6 5 -15 15 15 W 15 24 30.32 1027 10 16 0.00 0.00
4:53 pm 16:53 Sunny 49 9.4 4 -15.6 16 16 W 15 24 30.32 1027 10 16 0.00 0.00
5:53 pm 17:53 Sunny 46 7.8 5 -15 18 18 W 10 17 30.34 1027 10 16 0.00 0.00
6:53 pm 18:53 Clear 35 1.7 4 -15.6 27 27 WSW 7 11 30.36 1028 10 16 0.00 0.00
7:53 pm 19:53 Clear 32 0 3 -16.1 29 29 WNW 7 11 30.39 1029 10 16 0.00 0.00
8:53 pm 20:53 Clear 27 -2.8 2 -16.7 34 34 WNW 6 9 30.40 1029 10 16 0.00 0.00
9:53 pm 21:53 Clear 25 -3.9 2 -16.7 37 37 WNW 7 11 30.42 1030 10 16 0.00 0.00
10:53 pm 22:53 Clear 23 -5 4 -15.6 44 44 W 6 9 30.41 1030 10 16 0.00 0.00
11:53 pm 23:53 Clear 22 -5.6 3 -16.1 44 44 W 6 9 30.40 1030 10 16 0.00 0.00

Powered by AerisWeather